Regional Weather Roundup
Issued by NWS Upton, NY

Current Version | Previous Version | Text Only | Print | Product List | Glossary On
Versions: 1 2 3 4 5 6 7 8 9 10 11 12 13 14 15 16 17 18 19 20 21 22 23 24 25 26 27 28 29 30 31 32 33 34 35 36 37 38 39 40 41 42 43 44 45 46 47 48 49 50
678 ASUS41 KOKX 220818 RWROKX REGIONAL WEATHER ROUNDUP NATIONAL WEATHER SERVICE NEW YORK NY 400 AM EDT FRI MAY 22 2015 NOTE: "FAIR" INDICATES FEW OR NO CLOUDS BELOW 12,000 FEET WITH NO SIGNIFICANT WEATHER AND/OR OBSTRUCTIONS TO VISIBILITY. NYZ071-072-176-178-NJZ106-104-220900- NEW YORK CITY METRO AREA CITY SKY/WX TMP DP RH WIND PRES REMARKS CENTRAL PARK CLOUDY 56 44 64 CALM 29.88S LAGUARDIA APRT CLOUDY 56 45 66 NW8 29.85S KENNEDY INTL CLOUDY 56 44 64 NW7 29.86F NEWARK/LIBERTY CLOUDY 55 45 68 NW3 29.86F BRNX BOT. GARD N/A 54 43 66 NW3 29.86R TETERBORO CLOUDY 55 44 66 NW3 29.85S $$ NYZ177-179-078>081-220900- LONG ISLAND NEW YORK CITY SKY/WX TMP DP RH WIND PRES REMARKS FARMINGDALE CLOUDY 52 47 83 CALM 29.85F ISLIP CLOUDY 50 47 89 SW3 29.84S SHIRLEY CLOUDY 51 48 89 CALM 29.85F WESTHAMPTON LGT RAIN 49 47 93 NW3 29.86F MONTAUK POINT N/A 51 49 92 CALM 29.85F $$ NYZ052-065-067-220900- HUDSON VALLEY CITY SKY/WX TMP DP RH WIND PRES REMARKS WHITE PLAINS CLOUDY 54 43 66 NW9 29.84S NEWBURGH MOCLDY 52 46 82 NW8 29.87S MONTGOMERY CLOUDY 51 47 86 SW3 29.86S POUGHKEEPSIE CLOUDY 54 46 74 CALM 29.86R ALBANY CLOUDY 55 39 54 W7 29.83S $$ NJZ001-105-106-008-010-013-015-019>022-104-220900- NEW JERSEY CITY SKY/WX TMP DP RH WIND PRES REMARKS NEWARK/LIBERTY CLOUDY 55 45 68 NW3 29.86F TETERBORO CLOUDY 55 44 66 NW3 29.85S CALDWELL CLOUDY 53 45 74 CALM 29.86S MORRISTOWN CLOUDY 54 46 76 CALM 29.87S SOMERVILLE CLOUDY 51 46 83 CALM 29.85F SUSSEX CLOUDY 52 44 74 CALM 29.88S ANDOVER N/A 50 45 83 CALM 29.88R TRENTON PTCLDY 50 45 83 W3 29.88R MILLVILLE CLEAR 49 47 93 W6 29.89S FOG ATLANTIC CITY CLEAR 48 46 93 W5 29.88S FOG WRIGHTSTOWN CLOUDY 50 50 99 NW6 29.86R TOMS RIVER MOCLDY 48 46 93 NW5 29.87F BELMAR CLOUDY 52 45 76 W6 29.86S $$ PAZ047>061-062-071-220900- EASTERN PENNSYLVANIA CITY SKY/WX TMP DP RH WIND PRES REMARKS PHILADELPHIA PTCLDY 53 46 77 NW8 29.90S ALLENTOWN CLEAR 47 42 83 W6 29.90R SCRANTON CLEAR 46 42 86 SW5 29.90S $$ CTZ002-004>006-009-010-012-RIZ004-006-007-MAZ004-011-015-220900- SOUTHERN NEW ENGLAND IN CT CITY SKY/WX TMP DP RH WIND PRES REMARKS BRADLEY INTL CLOUDY 54 45 71 SW3 29.82F HARTFORD CLOUDY 53 44 71 S5 29.84S DANBURY CLOUDY 51 43 74 S3 29.85S WTRBRY/OXFORD CLOUDY 48 41 76 CALM 29.86S BRIDGEPORT CLOUDY 54 47 77 SW6 29.84F MERIDEN CLOUDY 51 45 79 CALM 29.84S NEW HAVEN CLOUDY 52 47 83 SW3 29.85S CHESTER CLOUDY 48 48 100 SW3 29.85S GROTON LGT RAIN 50 48 93 W3 29.84F WILLIMANTIC CLOUDY 51 42 71 S5 29.84S IN RI CITY SKY/WX TMP DP RH WIND PRES REMARKS PROVIDENCE LGT RAIN 50 48 93 S5 29.84S BLOCK ISLAND CLOUDY 48 46 93 CALM 29.85F WESTERLY LGT RAIN 50 49 96 W5 29.85F IN MA CITY SKY/WX TMP DP RH WIND PRES REMARKS BOSTON CLOUDY 53 41 63 S8 29.82S WORCESTER CLOUDY 50 41 71 W10 29.81S WESTFIELD CLOUDY 51 44 77 S3 29.83S PROVINCETOWN CLOUDY 52 46 82 S13 29.86R NANTUCKET RAIN 49 47 93 E9 29.83F $$ ANZ330-335-338-340-345-350-353-355-220900- COASTAL MARINE OBSERVATIONS STATION/POSITION TIME SKY/WX TEMP WIND PRES VSBY WAVE AIR SEA DIR/SP/G HT/PER (UTC) (F) (DEG/KT/KT) (MB) (MI) (FT/S) NY HARB ENTRANCE 0750 53 56 280/ 10/ 12 1010.6 1/ 9 4S FIRE IS 0703 53 N/A 1/ 8 20S FIRE ISLAND 0750 52 54 300/ 10/ 12 1010.5 1/ 9 GREAT SOUTH BAY 0700 53 62 250/ 6/ 8 N/A 23SW MTP 0750 49 53 330/ 6/ 8 1010.4 1/ 8 HUDSON CANYON NOT AVBL KINGS POINT 0700 53 330/ 6/ 7 1010.4 CENTRAL LI SOUND 0630 51 51 210/ 6/ 8 N/A EASTERN LI SOUND 0700 50 170/ 4/ 6 N/A ROBBINS REEF 0700 290/ 11/ 12 1010.0 $$ >>>>>>>>>>>>>>>>>>>>>>>>>>>> KEY <<<<<<<<<<<<<<<<<<<<<<<<<<< > < > SKY/WX - SKY CONDITION/PRESENT WEATHER < > TMP - TEMPERATURE IN FAHRENHEIT < > DP - DEWPOINT IN FAHRENHEIT < > RH - RELATIVE HUMIDITY IN PERCENT < > WIND - DIRECTION AND SPEED IN MPH < > PRES - MEAN SEA LEVEL PRESSURE IN INCHES OF HG < > WCI - WIND CHILL INDEX < > VSB - VISIBILITY IN MILES < > HX - HEAT INDEX < > TC - TEMPERATURE IN CELSIUS < > VRB - VARIABLE WIND DIRECTION < > < >>>>>>>>>>>>>>>>>>>>>>>>>>>> KEY <<<<<<<<<<<<<<<<<<<<<<<<<<<

USA.gov is the U.S. government's official web portal to all federal, state and local government web resources and services.